[TLELIST] Archives

 

[list_settings.list_name] Current TLEs

May 15th 2014 PST

HST 1 20580U 90037B 14134.78738037 .00003404 00000-0 22004-3 0 139 2 20580 028.4699 256.6852 0002794 292.4598 196.6338 15.05352648119680 ISS (ZARYA) 1 25544U 98067A 14135.35648756 .00025897 00000-0 45666-3 0 2936 2 25544 051.6472 262.3336 0002305 007.1729 040.8186 15.50222694886238 CXO 1 25867U 99040B 14136.15386809 -.00000304 00000-0 00000+0 0 184 2 25867 076.8118 322.0775 8161576 274.5816 359.4750 00.37801250 11791 ____________________________________________________________________ These 2-Line ...Continue Reading

[list_settings.list_name] Current TLEs

May 14th 2014 PST

HST 1 20580U 90037B 14125.96934277 .00002526 00000-0 16047-3 0 70 2 20580 028.4703 314.6424 0002840 187.4474 300.7708 15.05302378118351 ISS (ZARYA) 1 25544U 98067A 14134.39066878 .00018984 00000-0 33804-3 0 2871 2 25544 051.6433 267.1160 0003623 346.8211 067.6408 15.50145817886084 CXO 1 25867U 99040B 14136.15386809 -.00000304 00000-0 00000+0 0 184 2 25867 076.8118 322.0775 8161576 274.5816 359.4750 00.37801250 11791 ____________________________________________________________________ These 2-Line ...Continue Reading

[list_settings.list_name] Current TLEs

May 13th 2014 PST

HST 1 20580U 90037B 14125.96934277 .00002526 00000-0 16047-3 0 70 2 20580 028.4703 314.6424 0002840 187.4474 300.7708 15.05302378118351 ISS (ZARYA) 1 25544U 98067A 14126.92299264 .00007994 00000-0 14853-3 0 2319 2 25544 051.6500 304.1061 0002752 337.8472 139.1065 15.49877967884923 CXO 1 25867U 99040B 14136.15386809 -.00000304 00000-0 00000+0 0 184 2 25867 076.8118 322.0775 8161576 274.5816 359.4750 00.37801250 11791 ____________________________________________________________________ These 2-Line ...Continue Reading

[list_settings.list_name] Current TLEs

May 12th 2014 PST

HST 1 20580U 90037B 14125.96934277 .00002526 00000-0 16047-3 0 70 2 20580 028.4703 314.6424 0002840 187.4474 300.7708 15.05302378118351 ISS (ZARYA) 1 25544U 98067A 14126.92299264 .00007994 00000-0 14853-3 0 2319 2 25544 051.6500 304.1061 0002752 337.8472 139.1065 15.49877967884923 CXO 1 25867U 99040B 14133.50883935 -.00000351 00000-0 00000+0 0 173 2 25867 076.8076 322.2023 8165186 274.5862 359.5310 00.37803224 11789 ____________________________________________________________________ These 2-Line ...Continue Reading

[list_settings.list_name] Current TLEs

May 11th 2014 PST

HST 1 20580U 90037B 14125.96934277 .00002526 00000-0 16047-3 0 70 2 20580 028.4703 314.6424 0002840 187.4474 300.7708 15.05302378118351 ISS (ZARYA) 1 25544U 98067A 14126.92299264 .00007994 00000-0 14853-3 0 2319 2 25544 051.6500 304.1061 0002752 337.8472 139.1065 15.49877967884923 CXO 1 25867U 99040B 14133.50883935 -.00000351 00000-0 00000+0 0 173 2 25867 076.8076 322.2023 8165186 274.5862 359.5310 00.37803224 11789 ____________________________________________________________________ These 2-Line ...Continue Reading

[list_settings.list_name] Current TLEs

May 10th 2014 PST

HST 1 20580U 90037B 14125.96934277 .00002526 00000-0 16047-3 0 70 2 20580 028.4703 314.6424 0002840 187.4474 300.7708 15.05302378118351 ISS (ZARYA) 1 25544U 98067A 14126.92299264 .00007994 00000-0 14853-3 0 2319 2 25544 051.6500 304.1061 0002752 337.8472 139.1065 15.49877967884923 CXO 1 25867U 99040B 14130.86571366 -.00000328 00000-0 00000+0 0 164 2 25867 076.8008 322.3450 8166979 274.5971 359.8017 00.37803449 11776 ____________________________________________________________________ These 2-Line ...Continue Reading

[list_settings.list_name] Current TLEs

May 9th 2014 PST

HST 1 20580U 90037B 14125.96934277 .00002526 00000-0 16047-3 0 70 2 20580 028.4703 314.6424 0002840 187.4474 300.7708 15.05302378118351 ISS (ZARYA) 1 25544U 98067A 14126.92299264 .00007994 00000-0 14853-3 0 2319 2 25544 051.6500 304.1061 0002752 337.8472 139.1065 15.49877967884923 CXO 1 25867U 99040B 14130.86571366 -.00000328 00000-0 00000+0 0 164 2 25867 076.8008 322.3450 8166979 274.5971 359.8017 00.37803449 11776 ____________________________________________________________________ These 2-Line ...Continue Reading

[list_settings.list_name] Current TLEs

May 8th 2014 PST

HST 1 20580U 90037B 14125.96934277 .00002526 00000-0 16047-3 0 70 2 20580 028.4703 314.6424 0002840 187.4474 300.7708 15.05302378118351 ISS (ZARYA) 1 25544U 98067A 14126.92299264 .00007994 00000-0 14853-3 0 2319 2 25544 051.6500 304.1061 0002752 337.8472 139.1065 15.49877967884923 CXO 1 25867U 99040B 14130.86571366 -.00000328 00000-0 00000+0 0 164 2 25867 076.8008 322.3450 8166979 274.5971 359.8017 00.37803449 11776 ____________________________________________________________________ These 2-Line ...Continue Reading

[list_settings.list_name] Current TLEs

May 7th 2014 PST

HST 1 20580U 90037B 14125.96934277 .00002526 00000-0 16047-3 0 70 2 20580 028.4703 314.6424 0002840 187.4474 300.7708 15.05302378118351 ISS (ZARYA) 1 25544U 98067A 14126.92299264 .00007994 00000-0 14853-3 0 2319 2 25544 051.6500 304.1061 0002752 337.8472 139.1065 15.49877967884923 CXO 1 25867U 99040B 14128.22125145 -.00000284 00000-0 00000+0 0 151 2 25867 076.7941 322.4754 8167557 274.6293 359.8150 00.37799432 11763 ____________________________________________________________________ These 2-Line ...Continue Reading

[list_settings.list_name] Current TLEs

May 6th 2014 PST

HST 1 20580U 90037B 14125.96934277 .00002526 00000-0 16047-3 0 70 2 20580 028.4703 314.6424 0002840 187.4474 300.7708 15.05302378118351 ISS (ZARYA) 1 25544U 98067A 14126.46955149 .00007573 00000-0 14118-3 0 2271 2 25544 051.6491 306.3540 0001956 329.8917 135.3894 15.49867890884852 CXO 1 25867U 99040B 14128.22125145 -.00000284 00000-0 00000+0 0 151 2 25867 076.7941 322.4754 8167557 274.6293 359.8150 00.37799432 11763 ____________________________________________________________________ These 2-Line ...Continue Reading
  • This mailing list is a public mailing list - anyone may join or leave, at any time.
  • This mailing list is announce-only.

International Space Station (ISS) / Hubble Space Telescope (HST) / Chandra X-Ray Observatory Orbital Data via EMAIL

Privacy Policy:

Private list